Wind_Speed
26 26 27 27 28 29 30 31 32 33 34 36 37 38 40 40 40 40 40 41 42 42 43 43 42 42 42 43 42 41 41 41 40 39 38 36 35 33
28 29 29 30 31 32 33 33 34 34 35 37 38 39 39 40 41 42 42 42 43 44 44 45 44 44 44 44 44 43 42 42 42 41 40 38 37 35
31 31 32 33 33 34 34 35 35 36 36 37 39 40 40 41 42 43 44 44 45 45 45 46 45 45 45 45 45 44 43 43 42 41 41 40 39 38
34 34 34 35 34 35 35 35 35 36 36 37 39 40 41 41 42 43 44 45 45 46 47 47 47 46 47 46 46 45 45 44 43 42 42 41 40 39
36 36 36 35 35 35 34 34 35 35 35 36 37 39 40 41 42 43 44 45 46 46 46 47 47 48 48 48 47 46 47 46 45 44 43 42 42 40
37 37 36 35 34 34 34 34 35 35 35 35 35 38 39 40 41 42 43 44 45 46 47 47 48 48 48 48 48 47 47 48 47 47 45 44 42 41
37 36 35 34 33 33 33 33 34 34 35 35 35 36 39 40 41 42 42 44 45 46 46 47 48 48 48 48 48 49 49 48 48 48 46 45 44 42
36 35 34 33 32 32 32 32 32 33 34 35 35 36 38 40 41 42 42 43 44 46 47 48 48 49 49 49 48 48 49 49 49 48 47 46 45 44
36 35 34 33 32 31 31 31 32 32 34 35 35 36 37 39 40 42 43 44 44 46 47 47 48 48 49 49 49 48 47 48 49 49 49 47 45 45
36 35 33 32 31 30 29 29 31 32 33 34 35 36 37 38 39 40 42 43 43 45 47 48 48 48 49 50 49 49 48 48 49 49 49 48 47 46
35 34 32 31 30 29 29 29 30 31 32 33 34 34 36 37 38 39 40 42 42 44 46 47 48 48 48 49 50 50 49 49 49 50 50 49 48 47
35 33 31 30 29 29 29 29 30 31 32 32 32 33 35 36 38 39 40 41 42 43 46 46 47 48 48 49 51 51 50 50 50 50 50 50 50 48
34 32 31 31 30 30 30 30 30 31 31 31 32 33 34 36 37 38 39 40 41 42 45 47 47 48 48 48 50 51 50 50 50 51 51 51 51 50
33 32 31 31 31 31 31 30 30 30 30 30 31 32 33 35 36 37 38 39 40 41 43 46 47 47 48 48 48 50 51 50 51 51 51 52 52 51
33 32 31 31 31 31 31 31 30 30 29 30 30 31 32 33 34 36 37 38 39 40 41 43 45 47 48 47 48 49 49 50 52 52 52 52 51 51
34 33 32 31 31 31 31 30 30 30 29 29 29 30 31 31 32 33 34 36 37 39 40 42 44 46 46 47 48 48 50 50 51 52 51 51 51 52
34 33 32 31 31 31 30 30 30 30 29 28 28 28 29 30 31 32 33 34 36 38 39 41 42 43 45 47 48 49 50 50 50 51 53 52 51 51
34 33 33 32 31 31 30 29 29 28 26 26 25 26 27 28 29 29 31 33 34 36 38 40 41 42 43 45 47 47 49 50 49 50 53 53 52 52
34 33 32 31 31 30 28 27 26 25 24 23 23 24 25 26 27 28 29 30 32 34 37 38 40 41 42 43 45 46 47 49 49 49 51 52 51 51
34 33 32 31 29 28 26 25 24 23 22 21 21 21 21 23 24 26 27 29 29 31 35 36 38 39 40 42 45 46 47 47 48 48 50 52 51 51
33 32 30 28 27 25 24 23 22 21 21 19 19 19 19 20 22 24 25 27 28 30 32 34 36 38 39 42 44 45 45 45 45 45 47 49 50 50
31 29 28 26 25 24 23 22 21 20 20 19 18 18 18 19 20 21 23 25 26 28 30 32 34 36 37 39 41 43 44 44 44 44 45 47 48 48
28 27 26 25 24 23 22 21 20 20 19 18 17 16 17 17 18 20 21 22 24 26 27 29 32 34 35 37 39 41 42 43 43 43 43 43 45 46
Wind_Direction
299 295 292 288 284 279 275 269 265 260 257 255 253 250 247 245 243 241 239 238 236 236 234 233 233 232 231 230 231 231 231 232 232 232 233 234 235 235
301 297 293 289 286 282 277 271 266 262 258 256 254 252 250 246 244 241 239 237 236 236 235 233 233 232 231 231 230 230 230 231 232 232 233 234 235 235
302 298 295 291 287 283 279 274 268 263 259 256 254 252 251 248 245 242 239 238 236 235 234 233 233 232 231 230 231 231 230 231 231 232 233 233 233 234
304 301 297 293 289 283 279 274 269 265 261 256 254 253 251 249 247 244 240 238 237 236 235 234 233 232 231 231 230 231 230 230 230 231 232 232 232 233
305 302 299 295 290 284 278 274 270 266 263 258 254 253 251 249 247 244 241 238 236 235 235 234 233 233 232 231 230 230 230 230 230 231 232 231 231 232
306 303 300 296 291 285 279 274 269 266 263 260 255 253 251 249 247 245 241 238 236 235 234 233 232 232 231 231 230 230 229 230 229 229 230 230 230 231
308 305 301 297 292 287 282 276 271 267 264 261 257 254 252 249 247 244 242 239 236 234 233 232 231 230 229 229 230 230 230 230 229 228 229 230 229 230
309 306 303 299 294 288 284 279 274 269 266 262 259 256 253 250 247 244 242 240 237 235 233 232 231 230 229 229 229 230 229 229 228 228 229 229 228 228
309 306 302 299 295 290 285 281 276 272 267 263 259 256 253 250 247 244 241 239 238 236 233 231 231 230 229 229 228 228 229 228 227 227 227 227 227 227
309 306 303 299 295 291 287 284 280 275 270 265 261 257 253 250 247 244 242 240 238 236 234 232 231 230 229 228 227 227 227 227 226 226 226 226 226 226
310 307 304 301 297 293 289 286 283 278 273 268 263 258 253 250 247 245 242 240 237 236 234 232 231 230 229 227 225 225 225 225 225 224 224 225 225 226
310 308 305 302 298 295 291 288 285 281 276 271 264 259 255 251 248 245 243 240 238 235 235 232 230 230 228 226 225 225 225 224 224 223 223 223 224 224
309 307 305 302 299 297 294 291 287 284 279 273 266 261 256 252 249 246 243 241 238 235 234 233 230 229 229 227 225 224 224 224 223 223 223 223 223 223
309 305 304 302 300 298 295 293 290 286 281 276 270 263 258 253 249 246 243 241 238 235 233 232 230 228 228 226 225 224 223 224 223 223 223 223 223 223
308 305 303 302 301 299 297 294 292 288 283 277 271 265 258 253 249 245 243 241 237 233 232 231 230 228 227 226 225 225 224 224 223 223 222 222 222 223
307 304 303 302 301 300 297 295 293 291 286 279 272 265 258 253 249 245 242 240 236 233 231 230 229 228 228 227 226 225 224 224 223 222 221 221 221 222
307 304 302 301 300 299 298 297 296 293 287 280 272 265 259 253 248 245 241 239 236 234 232 230 229 229 228 226 225 225 224 223 223 223 221 220 220 221
306 304 302 300 301 300 299 298 298 294 288 281 273 266 261 254 248 245 242 239 237 234 231 230 229 228 228 227 225 224 224 223 223 223 221 219 220 221
305 303 302 301 302 302 300 299 299 296 290 283 275 267 260 253 247 245 242 239 237 234 231 230 229 228 227 225 223 223 223 223 223 223 220 220 220 221
304 303 302 302 302 301 300 299 298 297 292 285 276 266 259 253 248 244 241 238 237 234 231 229 228 226 226 224 223 222 221 221 222 223 221 218 218 219
303 303 302 302 302 299 298 298 297 295 293 287 277 266 258 252 247 243 240 238 236 233 230 229 227 225 224 223 222 221 220 219 220 221 221 220 219 219
301 302 302 302 301 299 297 295 295 293 291 287 278 266 257 252 249 244 239 237 235 232 230 228 225 223 221 221 220 219 219 218 217 218 219 220 219 220
300 301 300 301 300 297 296 294 292 291 289 285 278 265 256 253 248 244 239 234 232 230 227 226 225 223 220 219 218 216 217 217 217 218 219 220 219 219
Height
5791 5789 5787 5785 5783 5782 5781 5781 5782 5782 5783 5783 5785 5787 5789 5792 5794 5797 5801 5804 5808 5812 5816 5820 5824 5829 5833 5838 5843 5848 5852 5857 5861 5866 5870 5874 5878 5882
5783 5781 5778 5776 5774 5772 5771 5770 5771 5771 5772 5772 5773 5775 5777 5780 5783 5786 5790 5794 5798 5802 5806 5810 5814 5819 5823 5828 5834 5839 5843 5848 5853 5858 5862 5866 5871 5875
5774 5771 5768 5766 5763 5761 5760 5759 5759 5760 5761 5762 5762 5764 5766 5768 5771 5775 5778 5783 5786 5791 5795 5799 5804 5808 5813 5818 5824 5829 5834 5839 5844 5849 5853 5858 5863 5867
5765 5761 5758 5755 5752 5750 5749 5748 5747 5747 5749 5750 5750 5752 5754 5756 5759 5763 5766 5771 5775 5779 5783 5788 5793 5798 5803 5808 5813 5819 5824 5829 5834 5840 5845 5850 5855 5859
5755 5751 5747 5744 5741 5739 5737 5736 5735 5735 5736 5738 5739 5739 5742 5744 5747 5750 5754 5758 5763 5767 5772 5776 5781 5786 5791 5797 5803 5808 5814 5820 5825 5831 5836 5841 5846 5850
5745 5741 5737 5733 5730 5727 5726 5725 5724 5724 5724 5726 5727 5728 5730 5732 5735 5738 5742 5746 5750 5755 5760 5765 5770 5775 5780 5786 5792 5797 5803 5809 5814 5820 5826 5831 5836 5842
5735 5730 5726 5722 5719 5717 5715 5713 5713 5713 5713 5714 5715 5716 5718 5719 5722 5726 5730 5733 5738 5743 5748 5753 5758 5764 5769 5774 5780 5786 5792 5798 5804 5810 5816 5821 5827 5832
5725 5721 5716 5712 5709 5706 5704 5703 5702 5701 5702 5702 5703 5704 5706 5707 5710 5713 5717 5722 5727 5731 5735 5741 5746 5752 5757 5763 5769 5774 5780 5786 5793 5799 5805 5811 5817 5823
5716 5711 5707 5703 5699 5696 5694 5692 5691 5690 5690 5690 5691 5692 5693 5695 5698 5701 5704 5708 5713 5717 5723 5729 5734 5740 5745 5751 5757 5763 5769 5775 5782 5788 5795 5801 5807 5813
5707 5702 5697 5693 5689 5687 5684 5682 5680 5679 5679 5679 5680 5680 5681 5683 5685 5688 5691 5696 5701 5705 5709 5716 5721 5727 5733 5739 5745 5751 5757 5764 5770 5777 5784 5791 5797 5803
5697 5692 5688 5684 5680 5677 5675 5673 5671 5669 5667 5667 5667 5668 5669 5671 5673 5676 5680 5684 5688 5692 5697 5703 5709 5714 5720 5727 5733 5739 5746 5752 5759 5766 5773 5780 5786 5792
5689 5684 5679 5675 5672 5668 5666 5663 5661 5658 5657 5656 5656 5657 5657 5659 5661 5664 5667 5671 5675 5680 5684 5690 5696 5701 5708 5715 5721 5727 5734 5740 5747 5754 5761 5768 5775 5781
5680 5675 5671 5667 5663 5660 5657 5654 5651 5648 5646 5645 5645 5645 5646 5647 5649 5652 5655 5659 5663 5668 5672 5677 5684 5689 5696 5703 5709 5716 5722 5729 5736 5743 5750 5757 5764 5771
5672 5667 5663 5659 5655 5651 5647 5644 5641 5638 5636 5634 5633 5633 5634 5635 5637 5640 5643 5647 5651 5656 5659 5665 5672 5678 5685 5691 5697 5704 5711 5717 5725 5732 5739 5746 5753 5760
5663 5659 5654 5650 5646 5642 5638 5634 5631 5628 5626 5624 5623 5622 5622 5623 5625 5628 5631 5635 5639 5644 5648 5653 5659 5666 5673 5680 5686 5692 5699 5706 5713 5720 5728 5735 5742 5749
5655 5650 5645 5641 5637 5633 5629 5625 5621 5618 5615 5614 5612 5611 5611 5613 5614 5617 5620 5624 5628 5633 5637 5642 5648 5654 5660 5667 5674 5681 5688 5695 5702 5709 5716 5723 5731 5738
5646 5641 5636 5632 5628 5623 5619 5615 5612 5608 5605 5604 5602 5601 5601 5602 5604 5607 5610 5613 5618 5622 5626 5631 5636 5642 5649 5655 5663 5670 5677 5684 5690 5697 5705 5712 5720 5727
5636 5632 5627 5623 5618 5614 5610 5606 5603 5599 5596 5594 5593 5592 5592 5593 5595 5597 5600 5604 5608 5611 5616 5621 5626 5632 5638 5645 5652 5659 5665 5672 5679 5685 5693 5701 5709 5716
5627 5622 5618 5614 5609 5605 5601 5598 5594 5591 5588 5586 5584 5583 5583 5584 5586 5589 5591 5595 5598 5602 5606 5611 5616 5621 5628 5635 5641 5647 5654 5661 5667 5674 5682 5691 5699 5706
5618 5613 5609 5605 5601 5597 5593 5590 5587 5584 5581 5579 5577 5576 5576 5577 5578 5580 5583 5586 5590 5593 5597 5601 5606 5612 5618 5625 5631 5637 5643 5650 5657 5664 5672 5679 5687 5694
5608 5604 5600 5596 5593 5589 5586 5583 5580 5577 5575 5572 5571 5570 5570 5570 5572 5573 5576 5578 5581 5585 5589 5593 5597 5602 5607 5614 5621 5628 5634 5641 5648 5655 5662 5669 5677 5684
5599 5596 5592 5588 5585 5582 5579 5576 5574 5571 5569 5566 5565 5564 5564 5564 5565 5567 5569 5571 5574 5577 5581 5584 5588 5593 5599 5606 5612 5619 5625 5632 5638 5645 5652 5660 5667 5676
5591 5588 5584 5581 5578 5575 5572 5570 5567 5565 5563 5561 5559 5558 5558 5559 5559 5561 5562 5564 5567 5570 5573 5577 5581 5586 5592 5598 5604 5610 5616 5623 5630 5637 5644 5651 5658 5665